Location: Stony Creek
(40.9500°S, 175.8500°E)
Time: 10:09:33
(UTC+00:00)

NOSS 3-1 (C) - Pass Details

Date: 15 May 2026
Orbit: 618 x 1583 km, 63.4° (Epoch: 10 January)

Event Time Altitude Azimuth Distance (km) Brightness Sun altitude
Exits shadow 17:25:23 22° 322° (NW) 1,620 4.4 -21.1°
Drops below altitude 10° 17:27:43 10° 347° (NNW) 2,200 5.3 -20.7°
Sets 17:30:08 0° 359° (N) 3,022 6.2 -20.2°
